Location: Ottawa
(45.4167°N, 75.7000°W)
Time: 05:16:29
(UTC-05:00)

OTV 5 (USA 277) - Pass Details

Date: 14 October 2017
Orbit: 404 x 417 km, 43.0° (Epoch: 07 September)

Event Time Altitude Azimuth Distance (km) Brightness Sun altitude
Rises 19:33:05 0° 254° (WSW) 2,352 ? -13.8°
Reaches altitude 10° 19:35:13 10° 250° (WSW) 1,490 ? -14.2°
Maximum altitude 19:38:30 52° 173° (S) 522 ? -14.8°
Enters shadow 19:39:45 32° 113° (ESE) 744 ? -15.0°
